This is the latest recevied weather packets stored in our database for station/object KB1JL-13. If no packets are shown the sender has not sent any weather packets the latest 10 day(s).
| Time | Temp. | Humidity | Pressure | Rain* | Wind** | Luminosity | Snow |
|---|---|---|---|---|---|---|---|
| 1777465049 | 11.67° C | 73% | 1028.1 hPa | 0 mm | - | 252 W/m² | - |
| 1777464745 | 11.67° C | 74% | 1028.4 hPa | 0 mm | - | 179 W/m² | - |
| 1777464137 | 11.11° C | 76% | 1028.4 hPa | 0 mm | - | 182 W/m² | - |
| 1777463837 | 11.11° C | 76% | 1028.4 hPa | 0 mm | - | 181 W/m² | - |
| 1777463228 | 11.11° C | 78% | 1029.1 hPa | 0 mm | - | 157 W/m² | - |
| 1777462620 | 10° C | 80% | 1029.1 hPa | 0 mm | - | 166 W/m² | - |
| 1777462011 | 9.44° C | 82% | 1028.8 hPa | 0 mm | - | 102 W/m² | - |
| 1777461709 | 8.89° C | 84% | 1028.8 hPa | 0 mm | - | 104 W/m² | - |
| 1777461404 | 8.33° C | 87% | 1028.8 hPa | 0 mm | - | 78 W/m² | - |
| 1777461101 | 7.78° C | 90% | 1028.8 hPa | 0 mm | - | 58 W/m² | - |
| 1777460796 | 7.78° C | 94% | 1028.4 hPa | 0 mm | - | 42 W/m² | - |
| 1777460492 | 7.22° C | 96% | 1028.8 hPa | 0 mm | - | 49 W/m² | - |
| 1777460188 | 6.67° C | 97% | 1028.8 hPa | 0 mm | - | 39 W/m² | - |
| 1777458977 | 6.11° C | 98% | 1028.8 hPa | 0 mm | - | 25 W/m² | - |
| 1777458674 | 5.56° C | 98% | 1028.8 hPa | 0 mm | - | 21 W/m² | - |
| 1777457762 | 5° C | 98% | 1028.8 hPa | 0 mm | - | 12 W/m² | - |
| 1777457457 | 5° C | 98% | 1028.8 hPa | 0 mm | - | 8 W/m² | - |
| 1777457152 | 5° C | 98% | 1028.8 hPa | 0 mm | - | 6 W/m² | - |
| 1777456849 | 5° C | 98% | 1029.1 hPa | 0 mm | - | 4 W/m² | - |
| 1777455637 | 4.44° C | 98% | 1028.8 hPa | 0 mm | - | 0 W/m² | - |
| 1777455334 | 5° C | 98% | 1028.8 hPa | 0 mm | - | 0 W/m² | - |
| 1777455031 | 4.44° C | 98% | 1028.8 hPa | 0 mm | - | 0 W/m² | - |
| 1777454728 | 5° C | 98% | 1028.8 hPa | 0 mm | - | 0 W/m² | - |
| 1777454423 | 4.44° C | 98% | 1028.8 hPa | 0 mm | - | 0 W/m² | - |
| 1777454120 | 4.44° C | 98% | 1028.8 hPa | 0 mm | - | 0 W/m² | - |
* Rain latest hour (hover to see other rain measurements)
** Current wind speed in m/s (hover to see current wind gust speed)